FW4566 Weather Reports


time (UTC)temp
C
wind
direction
speed
KPH
gust
KPH
rain 1hr
cm
rain 24hr
cm
rain mn
cm
humidity
%
barometer
mb
20260504192007 22 360 4.8 16.1 0.00 0.00 0.00 48 1012.2
20260504191507 22 360 8.0 16.1 0.00 0.00 0.00 47 1012.0
20260504191008 23 360 6.4 12.9 0.00 0.00 0.00 45 1012.1
20260504190507 23 360 1.6 14.5 0.00 0.00 0.00 49 1012.1
20260504190006 22 360 1.6 17.7 0.00 0.00 0.00 46 1012.0
20260504185506 22 360 6.4 17.7 0.00 0.00 0.00 46 1012.1
20260504185007 22 360 4.8 9.7 0.00 0.00 0.00 48 1012.0
20260504184506 23 360 4.8 12.9 0.00 0.00 0.00 45 1012.0
20260504184005 23 360 3.2 12.9 0.00 0.00 0.00 45 1012.1
20260504183506 23 360 3.2 12.9 0.00 0.00 0.00 48 1012.1
20260504183008 23 360 1.6 17.7 0.00 0.00 0.00 46 1012.3
20260504182502 22 360 3.2 22.5 0.00 0.00 0.00 46 1012.2
20260504182001 22 360 4.8 19.3 0.00 0.00 0.00 46 1012.4
20260504181502 22 360 8.0 17.7 0.00 0.00 0.00 45 1012.6
20260504181100 22 360 8.0 16.1 0.00 0.00 0.00 46 1012.4
20260504180559 22 360 4.8 17.7 0.00 0.00 0.00 46 1012.7
20260504180119 21 360 8.0 19.3 0.00 0.00 0.00 47 1012.8
20260504175559 22 360 6.4 20.9 0.00 0.00 0.00 47 1012.8
20260504175101 21 360 6.4 20.9 0.00 0.00 0.00 48 1012.8
20260504174557 21 360 4.8 19.3 0.00 0.00 0.00 47 1013.0
20260504174056 21 360 6.4 19.3 0.00 0.00 0.00 48 1013.1
20260504173556 21 360 11.3 25.7 0.00 0.00 0.00 48 1013.1
20260504173107 21 360 9.7 22.5 0.00 0.00 0.00 48 1013.3
20260504172554 21 360 6.4 24.1 0.00 0.00 0.00 48 1013.3
20260504172053 21 360 8.0 22.5 0.00 0.00 0.00 48 1013.5
20260504171559 20 360 6.4 24.1 0.00 0.00 0.00 52 1013.6
20260504171053 20 360 8.0 24.1 0.00 0.00 0.00 51 1013.9
20260504170551 20 360 9.7 20.9 0.00 0.00 0.00 52 1013.9
20260504151032 17 360 1.6 17.7 0.00 0.00 0.00 57 1015.7
20260504150533 17 360 6.4 17.7 0.00 0.00 0.00 57 1015.7
20260504141026 17 360 4.8 19.3 0.00 0.00 0.00 53 1015.6
20260504140525 17 360 6.4 16.1 0.00 0.00 0.00 53 1015.7
20260504130513 13 360 3.2 12.9 0.00 0.00 0.00 63 1015.7
20260504110553 6 360 0.0 0.0 0.00 0.00 0.00 94 1016.1
20260504100547 6 360 0.0 1.6 0.00 0.00 0.00 93 1016.3
20260504081535 7 360 0.0 0.0 0.00 0.00 0.00 92 1017.2
20260504081033 7 360 0.0 0.0 0.00 0.00 0.00 92 1017.1
20260504080537 7 360 0.0 0.0 0.00 0.00 0.00 92 1017.3
20260504050516 8 360 0.0 0.0 0.00 0.00 0.00 82 1017.9
20260504050013 8 360 0.0 0.0 0.00 0.00 0.00 82 1017.7
20260504045512 8 360 0.0 0.0 0.00 0.00 0.00 81 1017.7
20260504045013 8 360 0.0 0.0 0.00 0.00 0.00 80 1017.7
20260504044517 8 360 0.0 0.0 0.00 0.00 0.00 80 1017.8
20260504044011 8 360 0.0 0.0 0.00 0.00 0.00 80 1017.8
20260504043511 8 360 0.0 0.0 0.00 0.00 0.00 80 1017.9
20260504043110 8 360 0.0 1.6 0.00 0.00 0.00 81 1017.9
20260504042508 8 360 0.0 1.6 0.00 0.00 0.00 80 1017.8
20260504042008 8 360 0.0 0.0 0.00 0.00 0.00 79 1017.9
20260504041528 8 360 0.0 0.0 0.00 0.00 0.00 79 1017.9
20260504041007 8 360 0.0 0.0 0.00 0.00 0.00 80 1017.9
20260504040509 8 360 0.0 0.0 0.00 0.00 0.00 79 1017.9
20260504040006 8 360 0.0 0.0 0.00 0.00 0.00 79 1017.9
20260504035506 8 360 0.0 0.0 0.00 0.00 0.00 78 1017.9
20260504035006 8 360 0.0 1.6 0.00 0.00 0.00 78 1017.9
20260504034506 8 360 0.0 1.6 0.00 0.00 0.00 78 1017.8
20260504034005 8 360 0.0 1.6 0.00 0.00 0.00 78 1017.8
20260504033505 8 360 0.0 0.0 0.00 0.00 0.00 77 1017.9
20260504033005 8 360 0.0 0.0 0.00 0.00 0.00 77 1017.8
20260504032505 9 360 0.0 0.0 0.00 0.00 0.00 77 1017.9
20260504032005 9 360 0.0 1.6 0.00 0.00 0.00 77 1018.0
20260504031505 9 360 0.0 1.6 0.00 0.00 0.00 76 1017.9
20260504031004 9 360 0.0 0.0 0.00 0.00 0.00 75 1017.9
20260504030504 9 360 0.0 1.6 0.00 0.00 0.00 75 1017.9
20260504030004 9 360 0.0 1.6 0.00 0.00 0.00 74 1018.0
20260504025504 9 360 0.0 1.6 0.00 0.00 0.00 75 1017.9
20260504025004 10 360 0.0 3.2 0.00 0.00 0.00 74 1017.9
20260504024505 10 360 1.6 3.2 0.00 0.00 0.00 74 1018.0
20260504024003 9 360 0.0 0.0 0.00 0.00 0.00 73 1017.9
20260504023504 10 360 0.0 0.0 0.00 0.00 0.00 74 1018.0
20260504023004 10 360 0.0 1.6 0.00 0.00 0.00 74 1018.0
20260504022504 10 360 0.0 3.2 0.00 0.00 0.00 73 1018.0
20260504022004 10 360 0.0 3.2 0.00 0.00 0.00 73 1017.9
20260504021504 10 360 0.0 3.2 0.00 0.00 0.00 72 1017.9
20260504021003 10 360 1.6 3.2 0.00 0.00 0.00 71 1018.0
20260504020503 10 360 1.6 3.2 0.00 0.00 0.00 71 1017.9
20260504020006 10 360 1.6 3.2 0.00 0.00 0.00 71 1017.9
20260504015503 10 360 0.0 3.2 0.00 0.00 0.00 71 1017.9
20260504015002 10 360 1.6 3.2 0.00 0.00 0.00 71 1017.9
20260504014503 10 360 1.6 3.2 0.00 0.00 0.00 70 1017.9
20260504014004 10 360 1.6 3.2 0.00 0.00 0.00 67 1017.8
20260504013502 11 360 0.0 3.2 0.00 0.00 0.00 66 1017.9
20260504013001 11 360 0.0 3.2 0.00 0.00 0.00 67 1018.0
20260504012503 11 360 0.0 3.2 0.00 0.00 0.00 66 1017.9
20260504012002 11 360 0.0 3.2 0.00 0.00 0.00 63 1017.9
20260504011501 11 360 1.6 3.2 0.00 0.00 0.00 62 1018.0
20260504011001 11 360 1.6 3.2 0.00 0.00 0.00 61 1018.0
20260504010501 11 360 1.6 3.2 0.00 0.00 0.00 59 1018.0
20260504010001 12 360 1.6 4.8 0.00 0.00 0.00 56 1018.1
20260504005600 12 360 1.6 4.8 0.00 0.00 0.00 53 1018.1
20260504005100 12 360 1.6 3.2 0.00 0.00 0.00 53 1018.1
20260504004600 12 360 0.0 3.2 0.00 0.00 0.00 52 1018.2
20260504004059 12 360 1.6 3.2 0.00 0.00 0.00 52 1018.2
20260504003601 12 360 1.6 3.2 0.00 0.00 0.00 53 1017.9
20260504003059 12 360 0.0 3.2 0.00 0.00 0.00 50 1017.9
20260504002600 12 360 1.6 3.2 0.00 0.00 0.00 48 1017.8
20260504002059 13 360 1.6 4.8 0.00 0.00 0.00 49 1017.5
20260504001600 13 360 1.6 4.8 0.00 0.00 0.00 48 1017.6
20260504001059 13 360 1.6 3.2 0.00 0.00 0.00 53 1017.8
20260504000558 13 360 0.0 3.2 0.00 0.00 0.00 49 1017.6
20260504000107 13 360 0.0 3.2 0.00 0.00 0.00 49 1017.7
20260503235559 13 360 1.6 3.2 0.00 0.00 0.00 46 1017.6
20260503235058 14 360 0.0 3.2 0.00 0.00 0.00 44 1017.6
20260503234558 14 360 0.0 3.2 0.00 0.00 0.00 39 1017.7
20260503234056 15 360 0.0 4.8 0.00 0.00 0.00 38 1017.8
20260503233556 15 360 0.0 4.8 0.00 0.00 0.00 38 1017.9
20260503233055 15 360 0.0 6.4 0.00 0.00 0.00 40 1017.9
20260503232555 15 360 1.6 6.4 0.00 0.00 0.00 36 1017.9
20260503232055 15 360 0.0 6.4 0.00 0.00 0.00 37 1017.8
20260503231554 15 360 3.2 6.4 0.00 0.00 0.00 36 1017.8
20260503231056 15 360 1.6 8.0 0.00 0.00 0.00 37 1018.0
20260503230557 15 360 1.6 6.4 0.00 0.00 0.00 37 1017.9
20260503230053 15 360 3.2 6.4 0.00 0.00 0.00 37 1018.1
20260503225552 15 360 1.6 6.4 0.00 0.00 0.00 35 1018.1
20260503225053 15 360 1.6 9.7 0.00 0.00 0.00 34 1018.0
20260503224600 16 360 3.2 9.7 0.00 0.00 0.00 35 1018.1
20260503224052 15 360 1.6 6.4 0.00 0.00 0.00 34 1018.1
20260503223552 15 360 3.2 6.4 0.00 0.00 0.00 34 1018.3
20260503223051 16 360 3.2 12.9 0.00 0.00 0.00 35 1018.2
20260503222551 16 360 3.2 12.9 0.00 0.00 0.00 34 1018.3
20260503222053 16 360 3.2 9.7 0.00 0.00 0.00 37 1018.3
20260503221600 16 360 4.8 9.7 0.00 0.00 0.00 36 1018.2
20260503221053 16 360 3.2 12.9 0.00 0.00 0.00 35 1018.2
20260503220551 16 360 3.2 9.7 0.00 0.00 0.00 34 1018.3
20260503220051 16 360 4.8 9.7 0.00 0.00 0.00 34 1018.3
20260503215550 16 360 1.6 12.9 0.00 0.00 0.00 33 1018.3
20260503215051 16 360 4.8 12.9 0.00 0.00 0.00 34 1018.5
20260503214550 16 360 4.8 9.7 0.00 0.00 0.00 34 1018.4
20260503214149 16 360 4.8 9.7 0.00 0.00 0.00 32 1018.2
20260503213550 16 360 1.6 8.0 0.00 0.00 0.00 34 1018.2
20260503213049 16 360 4.8 12.9 0.00 0.00 0.00 33 1018.3
20260503212549 16 360 4.8 12.9 0.00 0.00 0.00 34 1018.2
20260503212049 16 360 3.2 8.0 0.00 0.00 0.00 33 1018.3
20260503211550 16 360 1.6 8.0 0.00 0.00 0.00 33 1018.1
20260503211047 16 360 3.2 19.3 0.00 0.00 0.00 33 1018.3
20260503210547 16 360 3.2 19.3 0.00 0.00 0.00 34 1018.3
20260503210047 16 360 4.8 8.0 0.00 0.00 0.00 34 1018.3
20260503205546 16 360 1.6 9.7 0.00 0.00 0.00 32 1018.4
20260503205047 17 360 1.6 8.0 0.00 0.00 0.00 34 1018.5
20260503204601 16 360 3.2 8.0 0.00 0.00 0.00 32 1018.5
20260503204044 16 360 3.2 8.0 0.00 0.00 0.00 33 1018.5
20260503203544 16 360 4.8 9.7 0.00 0.00 0.00 35 1018.5
20260503203045 16 360 4.8 9.7 0.00 0.00 0.00 33 1018.7
20260503202545 16 360 3.2 8.0 0.00 0.00 0.00 35 1018.8
20260503202043 16 360 3.2 8.0 0.00 0.00 0.00 36 1019.0
20260503201541 16 360 3.2 8.0 0.00 0.00 0.00 33 1019.1
20260503201040 16 360 4.8 8.0 0.00 0.00 0.00 33 1019.3
20260503200540 16 360 4.8 8.0 0.00 0.00 0.00 32 1019.2
20260503200039 17 360 3.2 8.0 0.00 0.00 0.00 35 1019.4
20260503195538 16 360 3.2 12.9 0.00 0.00 0.00 31 1019.4
20260503195037 16 360 6.4 16.1 0.00 0.00 0.00 33 1019.7
20260503194541 16 360 8.0 16.1 0.00 0.00 0.00 35 1019.8
20260503194036 16 360 6.4 14.5 0.00 0.00 0.00 35 1019.7
20260503193536 15 360 1.6 12.9 0.00 0.00 0.00 34 1019.8
20260503193044 15 360 6.4 12.9 0.00 0.00 0.00 32 1020.0
20260503192534 16 360 4.8 14.5 0.00 0.00 0.00 34 1020.1